Simultaneous Nadir Overpasses (SNOs) Predictions

Prediction of SNOs between GOES-16 and NOAA-20 Satellite Orbit:

Table of predicted SNOs for the next 14.0 days since TLE Epoch: 8/7/2020
Index Date Time (GOES-16) GOES-16 Lat,Lon NOAA-20 Lat,Lon Distance(km) Time Diff (sec)
1 08/08/2020 06:23:17 -0.04, -75.21 -0.07, -74.98 26.29 80
2 08/10/2020 18:26:27 0.05, -75.24 -0.07, -75.75 58.56 80
3 08/11/2020 18:10:22 0.04, -75.25 0.92, -71.22 459.20 80
4 08/13/2020 06:29:29 -0.05, -75.26 0.23, -76.49 140.22 80
5 08/14/2020 06:13:24 -0.05, -75.27 -0.77, -71.95 377.53 80
6 08/15/2020 18:32:40 0.06, -75.29 -0.36, -77.27 224.50 80
7 08/16/2020 18:16:35 0.06, -75.31 0.64, -72.73 293.53 80
8 08/18/2020 06:35:42 -0.07, -75.32 0.51, -78.01 305.17 80
9 08/19/2020 06:19:36 -0.07, -75.34 -0.49, -73.47 213.08 80
10 08/20/2020 18:38:52 0.08, -75.37 -0.70, -78.77 388.21 80
11 08/21/2020 18:22:47 0.07, -75.39 0.36, -74.25 130.64 80
